TimeEDT,TemperatureF,Dew PointF,Humidity,Sea Level PressureIn,VisibilityMPH,Wind Direction,Wind SpeedMPH,Gust SpeedMPH,PrecipitationIn,Events,Conditions,WindDirDegrees,DateUTC
12:52 AM,21.0,3.0,46,30.35,10.0,North,5.8,-,N/A,,Clear,10,2013-03-18 04:52:00
1:52 AM,19.9,1.9,46,30.37,10.0,North,4.6,-,N/A,,Clear,10,2013-03-18 05:52:00
2:52 AM,16.0,6.1,65,30.39,10.0,Calm,Calm,-,N/A,,Clear,0,2013-03-18 06:52:00
3:52 AM,15.1,5.0,64,30.40,10.0,Calm,Calm,-,N/A,,Clear,0,2013-03-18 07:52:00
4:52 AM,12.0,7.0,80,30.41,10.0,Calm,Calm,-,N/A,,Clear,0,2013-03-18 08:52:00
5:52 AM,10.9,6.1,81,30.43,10.0,East,3.5,-,N/A,,Clear,80,2013-03-18 09:52:00
6:52 AM,9.0,5.0,84,30.45,10.0,Calm,Calm,-,N/A,,Clear,0,2013-03-18 10:52:00
7:52 AM,12.9,7.0,77,30.46,10.0,Calm,Calm,-,N/A,,Clear,0,2013-03-18 11:52:00
8:52 AM,19.0,5.0,54,30.46,10.0,Calm,Calm,-,N/A,,Clear,0,2013-03-18 12:52:00
9:52 AM,24.1,-0.0,35,30.44,10.0,NNE,4.6,-,N/A,,Clear,20,2013-03-18 13:52:00
10:52 AM,27.0,-2.9,27,30.43,10.0,Calm,Calm,-,N/A,,Clear,0,2013-03-18 14:52:00
11:52 AM,30.9,-2.0,24,30.40,10.0,North,3.5,-,N/A,,Clear,360,2013-03-18 15:52:00
12:52 PM,34.0,-4.0,20,30.38,10.0,Variable,3.5,-,N/A,,Clear,0,2013-03-18 16:52:00
1:52 PM,35.1,-4.0,19,30.36,10.0,SSE,4.6,-,N/A,,Clear,150,2013-03-18 17:52:00
2:52 PM,35.1,-4.0,19,30.33,10.0,South,3.5,-,N/A,,Clear,190,2013-03-18 18:52:00
3:52 PM,36.0,-2.9,19,30.31,10.0,SSW,4.6,-,N/A,,Clear,200,2013-03-18 19:52:00
4:52 PM,36.0,-0.9,21,30.27,10.0,SSW,5.8,-,N/A,,Clear,200,2013-03-18 20:52:00
5:52 PM,36.0,1.0,23,30.27,10.0,South,4.6,-,N/A,,Scattered Clouds,190,2013-03-18 21:52:00
6:52 PM,35.1,1.0,24,30.26,10.0,SSE,5.8,-,N/A,,Overcast,150,2013-03-18 22:52:00
7:52 PM,34.0,1.9,26,30.23,10.0,East,4.6,-,N/A,,Overcast,80,2013-03-18 23:52:00
8:52 PM,30.0,17.1,59,30.24,4.0,SSE,11.5,21.9,0.00,Snow,Light Snow,160,2013-03-19 00:52:00
9:09 PM,30.2,19.4,64,30.21,5.0,ESE,5.8,-,0.00,Snow,Light Snow,110,2013-03-19 01:09:00
9:28 PM,28.4,19.4,69,30.22,6.0,ESE,6.9,-,0.00,Snow,Light Snow,120,2013-03-19 01:28:00
9:41 PM,28.4,21.2,74,30.22,2.5,South,8.1,-,0.00,Snow,Light Snow,180,2013-03-19 01:41:00
9:52 PM,28.0,23.0,81,30.25,1.8,SSE,5.8,-,0.00,Snow,Light Snow,160,2013-03-19 01:52:00
10:09 PM,28.4,24.8,86,30.21,2.5,East,4.6,-,0.00,Snow,Light Snow,90,2013-03-19 02:09:00
10:16 PM,28.4,24.8,86,30.21,6.0,East,4.6,-,0.00,Snow,Light Snow,80,2013-03-19 02:16:00
10:52 PM,28.0,23.0,81,30.23,10.0,East,5.8,-,0.00,,Overcast,100,2013-03-19 02:52:00
11:49 PM,28.4,23.0,80,30.18,2.5,East,3.5,-,0.00,Snow,Light Snow,90,2013-03-19 03:49:00
11:52 PM,28.0,24.1,85,30.20,2.0,East,4.6,-,0.00,Snow,Light Snow,90,2013-03-19 03:52:00